Regional Weather Roundup
Issued by NWS Upton, NY

Home | Current Version | Previous Version | Text Only | Print | Product List | Glossary On
Versions: 1 2 3 4 5 6 7 8 9 10 11 12 13 14 15 16 17 18 19 20 21 22 23 24 25 26 27 28 29 30 31 32 33 34 35 36
000
ASUS41 KOKX 231505
RWROKX

REGIONAL WEATHER ROUNDUP
NATIONAL WEATHER SERVICE NEW YORK NY
1100 AM EDT THU OCT 23 2014

NOTE: "FAIR" INDICATES FEW OR NO CLOUDS BELOW 12,000 FEET WITH NO
SIGNIFICANT WEATHER AND/OR OBSTRUCTIONS TO VISIBILITY.

NYZ071-072-176-178-NJZ106-104-231600-
NEW YORK CITY METRO AREA


CITY           SKY/WX    TMP DP  RH WIND       PRES   REMARKS
CENTRAL PARK   LGT RAIN  51  47  86 N10G17    29.75R FOG
LAGUARDIA APRT LGT RAIN  52  47  83 N17G28    29.71R
KENNEDY INTL   LGT RAIN  52  46  80 N20G29    29.70R
NEWARK/LIBERTY LGT RAIN  53  48  83 N22G30    29.72S
BRNX BOT. GARD   N/A     50  45  81 W5        29.74R
TETERBORO      RAIN      52  45  77 N10       29.72R
$$

NYZ177-179-078>081-231600-
LONG ISLAND NEW YORK

CITY           SKY/WX    TMP DP  RH WIND       PRES   REMARKS
FARMINGDALE    CLOUDY    53  48  83 N14G20    29.67S
ISLIP          CLOUDY    54  49  83 N17G26    29.63S
SHIRLEY        CLOUDY    54  48  80 N15G25    29.64S
WESTHAMPTON    CLOUDY    56  49  77 N16       29.62R
MONTAUK POINT    N/A     57  50  77 N14G25    29.60R
$$

NYZ052-065-067-231600-
HUDSON VALLEY

CITY           SKY/WX    TMP DP  RH WIND       PRES   REMARKS
WHITE PLAINS   LGT RAIN  48  44  86 N15G24    29.69R
NEWBURGH       CLOUDY    48  46  93 NE17G29   29.76S
MONTGOMERY     CLOUDY    49  46  90 NE7       29.76S
POUGHKEEPSIE   RAIN      48  45  89 N13G29    29.76R FOG
ALBANY         LGT RAIN  46  44  93 N9        29.85F FOG
$$

NJZ001-105-106-008-010-013-015-019>022-104-231600-
NEW JERSEY

CITY           SKY/WX    TMP DP  RH WIND       PRES   REMARKS
NEWARK/LIBERTY LGT RAIN  53  48  83 N22G30    29.72S
TETERBORO      RAIN      52  45  77 N10       29.72R
CALDWELL       RAIN      52  46  80 VRB5      29.75R
MORRISTOWN     CLOUDY    54  50  87 N12G21    29.74S
SOMERVILLE     CLOUDY    53  45  74 NW10G21   29.74S
SUSSEX         LGT RAIN  53  46  77 N8        29.76S
ANDOVER          N/A     49  45  86 N8        29.77S
TRENTON        LGT RAIN  52  46  80 N18G26    29.74F
MILLVILLE      LGT RAIN  52  48  86 NW14G23   29.78R
ATLANTIC CITY  CLOUDY    51  48  89 NW18      29.73S
WRIGHTSTOWN    CLOUDY    51  49  92 NW14G23   29.72S
TOMS RIVER     CLOUDY    50  48  93 NW7       29.72S
BELMAR         CLOUDY    52  45  76 NW14      29.71R
$$

PAZ047>061-062-071-231600-
EASTERN PENNSYLVANIA

CITY           SKY/WX    TMP DP  RH WIND       PRES   REMARKS
PHILADELPHIA   LGT RAIN  52  47  83 NW23      29.79R
ALLENTOWN      CLOUDY    51  42  71 NW14G22   29.81S
SCRANTON       LGT RAIN  46  42  86 N9G22     29.86F
$$

CTZ002-004>006-009-010-012-RIZ004-006-007-MAZ004-011-015-231600-
SOUTHERN NEW ENGLAND
 IN CT

CITY           SKY/WX    TMP DP  RH WIND       PRES   REMARKS
BRADLEY INTL   CLOUDY    52  46  80 N16G26    29.67F
HARTFORD       CLOUDY    51  46  83 N9G20     29.67S
DANBURY        CLOUDY    48  43  82 NW8       29.72R
WTRBRY/OXFORD  NOT AVBL
BRIDGEPORT     CLOUDY    55  47  74 N17G29    29.65S
MERIDEN        CLOUDY    53  45  74 N15G32    29.66F
NEW HAVEN      CLOUDY    54  47  77 N24G33    29.64R
CHESTER        CLOUDY    54  46  76 N12G23    29.63S
GROTON         CLOUDY    56  48  74 N20G30    29.59S
WILLIMANTIC    CLOUDY    54  46  74 N8G22     29.65R

 IN RI

CITY           SKY/WX    TMP DP  RH WIND       PRES   REMARKS
PROVIDENCE     CLOUDY    55  49  80 N18G30    29.61F
BLOCK ISLAND   PTSUNNY   55  48  76 NE22G31   29.57S
WESTERLY       CLOUDY    58  49  72 N13G23    29.59S

 IN MA

CITY           SKY/WX    TMP DP  RH WIND       PRES   REMARKS
BOSTON         DRIZZLE   52  51  97 N29G37    29.61F FOG
WORCESTER      CLOUDY    48  45  89 NE20G32   29.66R
WESTFIELD      LGT RAIN  50  47  89 N21G29    29.67F
PROVINCETOWN   CLOUDY    63   7  11 NE8       29.56S
NANTUCKET      CLOUDY    60  56  86 N13       29.52F
$$

ANZ330-335-338-340-345-350-353-355-231600-
COASTAL MARINE OBSERVATIONS


STATION/POSITION TIME  SKY/WX   TEMP    WIND        PRES    VSBY  WAVE
                                AIR SEA DIR/SP/G                  HT/PER
                 (UTC)          (F)     (DEG/KT/KT) (MB)    (MI)  (FT/S)
NY HARB ENTRANCE NOT AVBL
4S FIRE IS       1500               63                N/A           5/10
20S FIRE ISLAND  1500            56 64  360/ 27/ 33 1002.3          7/ 5
23SW MTP         1500                                 N/A           8/ 6
HUDSON CANYON    1500            58 67  340/ 23/ 29 1000.9         10/ 7
EXECUTION ROCKS  1500            52 62  340/ 14/ 21   N/A
WESTERN LI SOUND 1500            52     350/ 12/ 17   N/A           2/ 6
CENTRAL LI SOUND 1500            55 63   10/ 19/ 27   N/A           3/ 3
EASTERN LI SOUND 1400            58 63   20/ 19/ 27   N/A
ROBBINS REEF     1500            53     340/ 15/ 20 1004.9
$$


>>>>>>>>>>>>>>>>>>>>>>>>>>>> KEY <<<<<<<<<<<<<<<<<<<<<<<<<<<
>                                                          <
>     SKY/WX - SKY CONDITION/PRESENT WEATHER               <
>     TMP    - TEMPERATURE IN FAHRENHEIT                   <
>     DP     - DEWPOINT IN FAHRENHEIT                      <
>     RH     - RELATIVE HUMIDITY IN PERCENT                <
>     WIND   - DIRECTION AND SPEED IN MPH                  <
>     PRES   - MEAN SEA LEVEL PRESSURE IN INCHES OF HG     <
>     WCI    - WIND CHILL INDEX                            <
>     VSB    - VISIBILITY IN MILES                         <
>     HX     - HEAT INDEX                                  <
>     TC     - TEMPERATURE IN CELSIUS                      <
>     VRB    - VARIABLE WIND DIRECTION                     <
>                                                          <
>>>>>>>>>>>>>>>>>>>>>>>>>>>> KEY <<<<<<<<<<<<<<<<<<<<<<<<<<<





USA.gov is the U.S. government's official web portal to all federal, state and local government web resources and services.